This demonstration page uses our WeatherBlox Daily Observations layout. Learn more.

Left ArrowRight Arrow

Hourly Observations for December 29, 2018

Temp ( °F °C ) Dew Point ( °F °C ) Humidity (%) Winds ( mph kmh ) Pressure ( in mb ) Visibility ( mi km ) Precip ( " mm )
12:57 am 00:57 Clear 4 -15.6 1 -17.2 88 88 WNW 6 9 30.43 1031 10 16 0.00 0.00
1:57 am 01:57 Clear 4 -15.6 1 -17.2 88 88 WSW 6 9 30.43 1031 10 16 0.00 0.00
2:57 am 02:57 Clear 4 -15.6 1 -17.2 88 88 W 5 7 30.43 1031 10 16 0.00 0.00
3:57 am 03:57 Clear 3 -16.1 0 -17.8 87 87 W 3 6 30.42 1030 10 16 0.00 0.00
4:57 am 04:57 Clear 3 -16.1 0 -17.8 87 87 W 5 7 30.41 1030 10 16 0.00 0.00
5:57 am 05:57 Clear 2 -16.7 -1 -18.3 88 88 SW 5 7 30.42 1030 10 16 0.00 0.00
6:57 am 06:57 Clear 2 -16.7 -1 -18.3 88 88 SW 7 11 30.44 1031 10 16 0.00 0.00
7:57 am 07:57 Clear 2 -16.7 -1 -18.3 88 88 WSW 5 7 30.45 1031 9 14 0.00 0.03
8:57 am 08:57 Sunny 6 -14.4 3 -16.1 87 87 SW 5 7 30.43 1031 10 16 0.00 0.00
9:57 am 09:57 Sunny 11 -11.7 6 -14.4 81 81 SW 10 17 30.42 1030 10 16 0.00 0.00
10:57 am 10:57 Sunny 17 -8.3 10 -12.2 74 74 SW 14 22 30.36 1028 10 16 0.00 0.00
11:57 am 11:57 Sunny 23 -5 13 -10.6 65 65 SW 13 20 30.30 1026 10 16 0.00 0.00
12:57 pm 12:57 Sunny 25 -3.9 15 -9.4 66 66 SW 16 26 30.26 1025 10 16 0.00 0.00
1:57 pm 13:57 Sunny 25 -3.9 15 -9.4 66 66 SW 17 28 30.23 1024 10 16 0.00 0.00
2:57 pm 14:57 Sunny 25 -3.9 16 -8.9 69 69 SSW 16 26 30.21 1023 10 16 0.00 0.00
3:57 pm 15:57 Sunny 26 -3.3 17 -8.3 69 69 SW 16 26 30.20 1023 10 16 0.00 0.00
4:57 pm 16:57 Sunny 24 -4.4 18 -7.8 77 77 SSW 17 28 30.16 1022 10 16 0.00 0.00
5:57 pm 17:57 Clear 23 -5 17 -8.3 78 78 SSW 17 28 30.15 1021 10 16 0.00 0.00
6:57 pm 18:57 Clear 22 -5.6 16 -8.9 78 78 SSW 13 20 30.15 1021 10 16 0.00 0.00
7:57 pm 19:57 Clear 21 -6.1 15 -9.4 78 78 SSW 17 28 30.15 1021 10 16 0.00 0.00
8:57 pm 20:57 Clear 20 -6.7 14 -10 78 78 SW 20 31 30.11 1020 10 16 0.00 0.00
9:57 pm 21:57 Clear 19 -7.2 13 -10.6 77 77 SSW 21 33 30.09 1019 10 16 0.00 0.00
10:57 pm 22:57 Clear 19 -7.2 14 -10 81 81 SW 20 31 30.06 1018 10 16 0.00 0.00
11:57 pm 23:57 Clear 18 -7.8 13 -10.6 81 81 SW 18 30 30.02 1017 10 16 0.00 0.00

Powered by AerisWeather